Location: Palmerston North
(40.3500°S, 175.6170°E)
Time: 02:26:03
(UTC+13:00)

USA 238 DEB - Pass Details

Date: 24 January 2019
Orbit: 1043 x 1169 km, 63.4° (Epoch: 17 February)

Event Time Altitude Azimuth Distance (km) Brightness Sun altitude
Rises 22:13:42 0° 353° (N) 4,032 6.4 -15.0°
Reaches altitude 10° 22:16:35 10° 360° (N) 3,074 5.7 -15.4°
Maximum altitude 22:23:21 40° 66° (ENE) 1,638 4.2 -16.4°
Drops below altitude 10° 22:30:02 10° 132° (SE) 3,049 6.1 -17.3°
Sets 22:32:53 0° 139° (SE) 3,996 6.8 -17.6°
